Fort Greely, AK

8:32 PM AKST on February 25, 2017 (GMT -0900)
Allen Army Air Field | | Change Station
Active Advisory: Winter Weather Advisory

Elev 1276 ft 63.99 °N, 145.72 °W | Updated 39 minutes ago

Overcast
Overcast
27 °F
Feels Like 22 °F
N
5
Wind Variable Wind from SW

Today
High -- | Low -- °F
--% Chance of Precip.
Yesterday
High -- | Low -- °F
Precip. -- in
Pressure 30.37 in
Visibility 10.0 miles
Clouds Overcast 5000 ft
Windchill 22 °F
Dew Point 17 °F
Humidity 66%
Rainfall 0.01 in
Snow Depth Not available.
8:02 AM 5:50 PM
Waning Crescent, 0% visible
METAR PABI 260453Z 23004KT 10SM OVC050 M03/M08 A3029 RMK AO2 SLP284 T10281083
Pressure 30.37 in
Visibility 10.0 miles
Clouds Overcast 5000 ft
Windchill 22 °F
Dew Point 17 °F
Humidity 66%
Rainfall 0.01 in
Snow Depth Not available.
8:02 AM 5:50 PM
Waning Crescent, 0% visible
METAR PABI 260453Z 23004KT 10SM OVC050 M03/M08 A3029 RMK AO2 SLP284 T10281083

Get Your Daily Forecast Email!

Thanks for signing up!

Be on the lookout for a verification email in your inbox.

You'll start receiving the daily forecast at 8 AM.

×

10-Day Weather Forecast

Almanac

Astronomy

Feb. 25, 2017 Rise Set
Actual Time
Civil Twilight
Nautical Twilight
Astronomical Twilight
Moon
Length of Visible Light
Length of Day
Tomorrow will be .
, % of the Moon is Illuminated

Today's Extremes

State Highs State Lows

Community

WunderPhotos

Upload Photos

1,962,540 photos uploaded!

WunderBlog® & News

Nearby

Air Quality

  Air Quality AQ Index Pollutant
Not available.

Snow Depth

Station Depth Elevation

Earthquake Activity

City Distance Mag. Time & Date
Minimum magnitude displayed is 2.5.

Coastal Water Temperatures

Place Temperature

Stations

Nearby Weather Stations

Station Location Temp. Windchill Dew Point Humidity Wind Precip. Elev Updated Type
                   

Watches & Warnings

Winter Weather Advisory
Issued: 9:29 AM AKST Feb. 25, 2017 – National Weather Service

... Winter Weather Advisory now in effect from 6 PM this evening
to 3 PM akst Sunday...

* location... north of Birch Lake.

* Snow... 4 to 7 inches.

* Timing... snow will develop late this afternoon. Snow will be
heavy at times Saturday evening into early Sunday before
tapering off late Sunday morning.

* Impacts... visibility may be greatly reduced. Travel and
outdoor activities will be difficult.

Precautionary/preparedness actions...

A Winter Weather Advisory means that one or more winter weather
hazards are expected to cause travel difficulties.